Вернуться в каталог

CZ-3C DEB

АктивенGTO
NORAD 40854·DEBRIS·🇨🇳 China

Запущен Feb 24, 2012 с Xichang Satellite Launch Center

Loading…

TLE

УстаревшееSource: Space-Track

Эпоха: Sep 13, 2026, 13:08 UTC

1 40854U 12008U   26256.54754958  .00000282  00000-0  71315-2 0  9991
2 40854  20.1357 216.3446 7004947 131.6970 313.8439  2.41776967  1804

Отслеживайте CZ-3C DEB в реальном времени с AllMySat

Download on the App Store